Tracking 29892 objects as of 21-Nov-2024
HD Live streaming from Space Station
objects crossing your sky now

STARLINK-31481

Track STARLINK-31481 now!
10-day predictions
STARLINK-31481 is classified as:


NORAD ID: 59541
Int'l Code: 2024-074H
Perigee: 450.2 km
Apogee: 452.2 km
Inclination: 43.0 °
Period: 93.5 minutes
Semi major axis: 6822 km
RCS: Unknown
Launch date: April 18, 2024
Source: United States (US)
Launch site: AIR FORCE EASTERN TEST RANGE (AFETR)
Your satellite tracking list
Your tracking list is empty




NASA's NSSDC Master Catalog

Two Line Element Set (TLE):
1 59541U 24074H   24325.96529735 -.00002895  00000-0 -62058-4 0  9994
2 59541  43.0006 151.9158 0001437 273.5769  86.4924 15.40703029 34587
Source of the keplerian elements: AFSPC